Vancouver, British Columbia

11:05 PM PDT on April 25, 2018 (GMT -0700)
Vancouver International Airport

Weather History for CYVR - January, 2013

Change the Weather History Date:

Sunday, January 27, 2013

  Actual Average Record
Temperature  
Mean Temperature 40 °F -  
Max Temperature 43 °F 46 °F 54 °F (2016)
Min Temperature 37 °F 35 °F 19 °F (1997)
Degree Days  
Heating Degree Days 25    
Moisture  
Dew Point 37 °F    
Average Humidity 90    
Maximum Humidity 93    
Minimum Humidity 80    
Precipitation  
Precipitation 0.04 in 0.17 in - ()
Sea Level Pressure  
Sea Level Pressure 29.99 in    
Wind  
Wind Speed 4 mph ()    
Max Wind Speed 10 mph    
Max Gust Speed -    
Visibility 8.5 miles    
Events Rain    
Averages and records for this station are not official NWS values.
T = Trace of Precipitation, MM = Missing Value Source: Averaged Metar Reports

Daily Weather History Graph

Daily Weather History Graph

Search for Another Location

Airport or City:

Astronomy

Jan. 27, 2013 Rise Set
Actual Time 7:49 AM PST 5:01 PM PST
Civil Twilight 7:15 AM PST 5:36 PM PST
Nautical Twilight 6:36 AM PST 6:15 PM PST
Astronomical Twilight 5:59 AM PST 6:52 PM PST
Moon 6:11 PM PST (1/27) 7:37 AM PST (1/27)
Length of Visible Light 10h 21m
Length of Day
9h 12m
Full, 100% of the Moon is Illuminated
Jan 27
Full
Feb 3
Last Quarter
Feb 9
New
Feb 17
First Quarter
Feb 25
Full

Hourly Weather History & Observations

Time (PST) Temp. Windchill Dew Point Humidity Pressure Visibility Wind Dir Wind Speed Gust Speed Precip Events Conditions
12:00 AM 39.2 °F 37.0 °F 37.4 °F 93% 30.02 in 5.0 mi SE 3.5 mph - N/A Rain Light Rain
12:29 AM 39.2 °F 35.9 °F - N/A% - 3.0 mi ESE 4.6 mph - N/A Rain Light Rain
1:00 AM 39.2 °F 35.9 °F 37.4 °F 93% 30.01 in 3.0 mi East 4.6 mph - N/A Rain Light Rain
1:37 AM 39.2 °F 35.9 °F - N/A% - 4.0 mi ESE 4.6 mph - N/A   Overcast
2:00 AM 39.2 °F 35.0 °F 37.4 °F 93% 30.01 in 3.0 mi East 5.8 mph - N/A   Overcast
2:26 AM 39.2 °F 35.0 °F - N/A% - 2.0 mi East 5.8 mph - N/A   Overcast
3:00 AM 39.2 °F - 37.4 °F 93% 30.01 in 2.0 mi Calm Calm - N/A   Overcast
3:37 AM 39.2 °F - - N/A% - 2.0 mi Calm Calm - N/A   Light Drizzle
3:54 AM 39.2 °F - - N/A% - 6.0 mi ENE 2.3 mph - N/A   Overcast
4:00 AM 39 °F - 37 °F 91% 30.01 in 6 mi East 3.5 mph - - Rain Light Drizzle
4:00 AM 39.2 °F 37.0 °F 37.4 °F 93% 30.01 in 6.0 mi East 3.5 mph - N/A   Overcast
5:00 AM 39.2 °F 37.0 °F 35.6 °F 87% 30.00 in 10.0 mi ENE 3.5 mph - N/A   Overcast
5:44 AM 39.2 °F 35.9 °F - N/A% - 10.0 mi East 4.6 mph - N/A   Overcast
6:00 AM 39.2 °F 35.0 °F 35.6 °F 87% 30.00 in 12.0 mi East 5.8 mph - N/A   Overcast
7:00 AM 37.4 °F 33.8 °F 35.6 °F 93% 30.00 in 12.0 mi East 4.6 mph - N/A   Overcast
7:46 AM 37.4 °F 33.8 °F - N/A% - 12.0 mi East 4.6 mph - N/A   Overcast
8:00 AM 37.4 °F 33.8 °F 33.8 °F 87% 30.00 in 12.0 mi East 4.6 mph - N/A   Overcast
9:00 AM 39.2 °F 35.0 °F 35.6 °F 87% 30.00 in 15.0 mi East 5.8 mph - N/A   Overcast
9:38 AM 39.2 °F 35.0 °F - N/A% - 12.0 mi East 5.8 mph - N/A Rain Light Rain Showers
10:00 AM 39.2 °F 34.2 °F 37.4 °F 93% 30.01 in 8.0 mi East 6.9 mph - N/A Rain Light Rain Showers
11:00 AM 41.0 °F 36.4 °F 37.4 °F 87% 30.01 in 8.0 mi ESE 6.9 mph - N/A Rain Light Rain
12:00 PM 41.0 °F 38.0 °F 39.2 °F 93% 30.00 in 8.0 mi East 4.6 mph - N/A Rain Light Rain
12:40 PM 41.0 °F 39.0 °F - N/A% - 5.0 mi East 3.5 mph - N/A Rain Light Rain
1:00 PM 42.8 °F 40.1 °F 39.2 °F 87% 29.97 in 5.0 mi ESE 4.6 mph - N/A Rain Light Rain
1:16 PM 42.8 °F 41.1 °F - N/A% - 5.0 mi East 3.5 mph - N/A Rain Light Rain
2:00 PM 42.8 °F 41.1 °F 39.2 °F 87% 29.97 in 8.0 mi SSE 3.5 mph - N/A Rain Light Rain
2:18 PM 42.8 °F 41.1 °F - N/A% - 8.0 mi South 3.5 mph - N/A Rain Light Rain
3:00 PM 42.8 °F 38.6 °F 39.2 °F 87% 29.96 in 10.0 mi South 6.9 mph - N/A Rain Light Rain
3:06 PM 42.8 °F 37.0 °F - N/A% - 10.0 mi South 10.4 mph - N/A   Mostly Cloudy
4:00 PM 42 °F - 38 °F 80% 29.96 in 15 mi South 10.4 mph - - Rain Light Rain
4:00 PM 42.8 °F 37.5 °F 37.4 °F 81% 29.96 in 15.0 mi South 9.2 mph - N/A   Mostly Cloudy
5:00 PM 42.8 °F 40.1 °F 37.4 °F 81% 29.96 in 12.0 mi SSE 4.6 mph - N/A   Overcast
5:11 PM 41.0 °F 38.0 °F - N/A% - 10.0 mi ESE 4.6 mph - N/A Rain Light Rain Showers
6:00 PM 39.2 °F 33.6 °F 37.4 °F 93% 29.96 in 10.0 mi East 8.1 mph - N/A Rain Light Rain Showers
6:26 PM 37.4 °F 32.1 °F - N/A% - 10.0 mi East 6.9 mph - N/A   Overcast
7:00 PM 39.2 °F 33.6 °F 37.4 °F 93% 29.97 in 10.0 mi East 8.1 mph - N/A   Overcast
7:34 PM 39.2 °F 35.0 °F - N/A% - 10.0 mi East 5.8 mph - N/A Rain Light Rain
8:00 PM 39.2 °F 34.2 °F 37.4 °F 93% 29.97 in 10.0 mi NNE 6.9 mph - N/A Rain Light Rain
8:49 PM 39.2 °F 33.6 °F - N/A% - 10.0 mi East 8.1 mph - N/A   Overcast
9:00 PM 39.2 °F 35.0 °F 37.4 °F 93% 29.96 in 10.0 mi East 5.8 mph - N/A   Overcast
10:00 PM 38 °F - 36 °F 88% 29.96 in 10 mi East 4.6 mph - -   Partly Cloudy
10:00 PM 37.4 °F 33.8 °F 35.6 °F 93% 29.96 in 10.0 mi East 4.6 mph - N/A   Mostly Cloudy
11:00 PM 39.2 °F - 37.4 °F 93% 29.98 in 10.0 mi Calm Calm - N/A Rain Light Rain
11:38 PM 39.2 °F - - N/A% - 10.0 mi NW 2.3 mph - N/A   Overcast